Location: Riverside Cemetery
(38.3047°N, 99.7773°W)
Time: 07:32:49
(UTC+00:00)

Cosmos 990 Rocket - Pass Details

Date: 19 September 2020
Orbit: 747 x 769 km, 74.0° (Epoch: 21 October)

Event Time Altitude Azimuth Distance (km) Brightness Sun altitude
Rises 11:02:13 0° 343° (NNW) 3,215 7.2 -16.8°
Reaches altitude 10° 11:04:35 10° 346° (NNW) 2,290 6.5 -16.3°
Maximum altitude 11:09:47 73° 71° (ENE) 797 4.2 -15.4°
Drops below altitude 10° 11:14:58 10° 156° (SSE) 2,290 6.6 -14.4°
Sets 11:17:20 0° 158° (SSE) 3,214 7.3 -13.9°
